Weather in Feodosia

Russia / Republic of Crimea     45°01′55″N   35°22′52″E
temp.,
°C
wind,
m/s
gust,
m/s
humid.,
%
clouds,
%
prec.,
mm/h
press.,
hPa
HPBL,
m
5 december, sun
sun500:00+10s3591100 0.4 1007235
03:00+12sw7109270 0.7 1007359
06:00+7nnw9119191 0.3 1009432
09:00+7nnw91187100 0.3 1011478
12:00+7nw898163 0.0 1013552
15:00+8nnw557659 0.0 1013533
18:00+8nne3378100 0.1 1015455
21:00+8se337989 0.1 1016401
6 december, mon
mon600:00+9s568147 0.0 1016569
03:00+10s557796 0.0 1016713
06:00+10s568037 0.0 1016473
09:00+11s6783100 0.0 1016406
12:00+11s7985100 0.0 1016359
15:00+11ssw578765 0.0 1016232
18:00+11s458822 0.0 1016118
21:00+12s5688100 0.0 101793
7 december, tue
tue700:00+12s4484100 0.0 101653
03:00+12sse458739 0.0 101571
06:00+11sse458916 0.0 101484
09:00+11sse459062 0.0 101390
12:00+12sse46915 0.0 1012131
15:00+12se56921 0.0 1010142
18:00+12se56917 0.0 1008115
21:00+12se57915 0.0 1007144
8 december, wed
wed800:00+12se58895 0.0 1005154
03:00+12se6987100 0.0 1004161
06:00+12se6985100 0.0 1003176
09:00+12sse6983100 0.0 1004139
12:00+12sse688230 0.0 1004162
15:00+12se6977100 0.0 1002175
18:00+11sw11149053 0.0 1004455
21:00+11sw12158848 0.0 1007730
9 december, thu
thu900:00+10sw121485100 0.0 1009659
03:00+10sw12128198 0.0 1011677
06:00+10w457640 0.0 1012335
09:00+10w347278 0.0 1015410
12:00+10wsw4471100 0.0 1017587
15:00+10sw447445 0.0 1017441
18:00+10sw337176 0.0 1019299
21:00+10ssw45734 0.0 1019535